"Sample Date","Sample Time","Sample Value","Units","Flow Rate","Number Channels","Micron Size 0","Counts/Channel 0","Micron Size 1","Counts/Channel 1","Micron Size 2","Counts/Channel 2","Micron Size 3","Counts/Channel 3","Micron Size 4","Counts/Channel 4","Micron Size 5","Counts/Channel 5","Micron Size 6","Counts/Channel 6","Micron Size 7","Counts/Channel 7","Micron Size 8","Counts/Channel 8","Micron Size 9","Counts/Channel 9","Micron Size 10","Counts/Channel 10","Micron Size 11","Counts/Channel 11","Micron Size 12","Counts/Channel 12","Micron Size 13","Counts/Channel 13","Micron Size 14","Counts/Channel 14","Micron Size 15","Counts/Channel 15","Micron Size 16","Counts/Channel 16","Micron Size 17","Counts/Channel 17","Micron Size 18","Counts/Channel 18","Micron Size 19","Counts/Channel 19","Micron Size 20","Counts/Channel 20","Micron Size 21","Counts/Channel 21","Micron Size 22","Counts/Channel 22","Micron Size 23","Counts/Channel 23","Micron Size 24","Counts/Channel 24","Micron Size 25","Counts/Channel 25","Micron Size 26","Counts/Channel 26","Micron Size 27","Counts/Channel 27","Micron Size 28","Counts/Channel 28","Micron Size 29","Counts/Channel 29","Micron Size 30","Counts/Channel 30","Micron Size 31","Counts/Channel 31"
"05/07/08","14:00:05",454.000,"cc",28316.627,6,0.100,383.000,0.200,64.000,0.300,5.000,0.500,2.000,1.000,0,5.000,0
"05/07/08","14:00:11",460.000,"cc",28298.447,6,0.100,368.000,0.200,79.000,0.300,13.000,0.500,0,1.000,0,5.000,0
"05/07/08","14:00:17",420.000,"cc",28328.922,6,0.100,338.000,0.200,72.000,0.300,5.000,0.500,5.000,1.000,0,5.000,0
"05/07/08","14:00:23",444.000,"cc",28323.135,6,0.100,357.000,0.200,79.000,0.300,7.000,0.500,1.000,1.000,0,5.000,0
"05/07/08","14:00:29",439.000,"cc",28270.264,6,0.100,374.000,0.200,54.000,0.300,9.000,0.500,2.000,1.000,0,5.000,0
"05/07/08","14:00:35",461.000,"cc",28277.832,6,0.100,365.000,0.200,82.000,0.300,12.000,0.500,1.000,1.000,1.000,5.000,0
"05/07/08","14:00:41",458.000,"cc",28339.145,6,0.100,372.000,0.200,79.000,0.300,5.000,0.500,1.000,1.000,1.000,5.000,0
"05/07/08","14:00:47",420.000,"cc",28331.920,6,0.100,321.000,0.200,86.000,0.300,8.000,0.500,4.000,1.000,1.000,5.000,0
"05/07/08","14:00:53",457.000,"cc",28412.984,6,0.100,377.000,0.200,71.000,0.300,8.000,0.500,1.000,1.000,0,5.000,0
"05/07/08","14:00:59",450.000,"cc",28295.967,6,0.100,364.000,0.200,77.000,0.300,8.000,0.500,1.000,1.000,0,5.000,0
"05/07/08","14:01:05",401.000,"cc",28234.332,6,0.100,320.000,0.200,72.000,0.300,7.000,0.500,2.000,1.000,0,5.000,0
"05/07/08","14:01:11",461.000,"cc",28251.104,6,0.100,365.000,0.200,80.000,0.300,13.000,0.500,3.000,1.000,0,5.000,0
"05/07/08","14:01:17",460.000,"cc",28312.557,6,0.100,373.000,0.200,80.000,0.300,4.000,0.500,2.000,1.000,1.000,5.000,0
"05/07/08","14:01:23",396.000,"cc",28388.580,6,0.100,322.000,0.200,63.000,0.300,8.000,0.500,2.000,1.000,1.000,5.000,0
"05/07/08","14:01:29",455.000,"cc",28271.100,6,0.100,373.000,0.200,75.000,0.300,5.000,0.500,2.000,1.000,0,5.000,0
"05/07/08","14:01:35",547.000,"cc",28267.754,6,0.100,397.000,0.200,97.000,0.300,13.000,0.500,9.000,1.000,30.000,5.000,1.000
"05/07/08","14:01:41",457.000,"cc",28374.398,6,0.100,351.000,0.200,88.000,0.300,7.000,0.500,5.000,1.000,5.000,5.000,1.000
"05/07/08","14:01:47",482.000,"cc",28314.801,6,0.100,383.000,0.200,88.000,0.300,10.000,0.500,1.000,1.000,0,5.000,0
"05/07/08","14:01:53",453.000,"cc",28298.609,6,0.100,374.000,0.200,76.000,0.300,3.000,0.500,0,1.000,0,5.000,0
"05/07/08","14:01:59",457.000,"cc",28310.840,6,0.100,370.000,0.200,78.000,0.300,6.000,0.500,3.000,1.000,0,5.000,0
"05/07/08","14:02:05",446.000,"cc",28269.383,6,0.100,359.000,0.200,76.000,0.300,8.000,0.500,1.000,1.000,2.000,5.000,0
"05/07/08","14:02:11",742.000,"cc",28351.869,6,0.100,447.000,0.200,124.000,0.300,26.000,0.500,37.000,1.000,104.000,5.000,4.000
"05/07/08","14:02:17",566.000,"cc",28320.508,6,0.100,416.000,0.200,98.000,0.300,13.000,0.500,15.000,1.000,24.000,5.000,0
"05/07/08","14:02:23",738.000,"cc",28328.555,6,0.100,479.000,0.200,99.000,0.300,49.000,0.500,38.000,1.000,73.000,5.000,0
"05/07/08","14:02:29",872.000,"cc",28346.895,6,0.100,453.000,0.200,135.000,0.300,45.000,0.500,61.000,1.000,175.000,5.000,3.000
"05/07/08","14:02:35",518.000,"cc",28301.119,6,0.100,382.000,0.200,109.000,0.300,11.000,0.500,5.000,1.000,10.000,5.000,1.000
"05/07/08","14:02:41",446.000,"cc",28281.287,6,0.100,357.000,0.200,78.000,0.300,10.000,0.500,0,1.000,1.000,5.000,0
"05/07/08","14:02:47",7616.000,"cc",27242.711,6,0.100,5508.000,0.200,1266.000,0.300,345.000,0.500,326.000,1.000,144.000,5.000,27.000
"05/07/08","14:02:53",946.000,"cc",26710.014,6,0.100,614.000,0.200,166.000,0.300,54.000,0.500,40.000,1.000,72.000,5.000,0
"05/07/08","14:02:59",1083.000,"cc",26912.322,6,0.100,529.000,0.200,184.000,0.300,64.000,0.500,85.000,1.000,215.000,5.000,6.000
"05/07/08","14:03:05",500.000,"cc",26928.781,6,0.100,400.000,0.200,83.000,0.300,9.000,0.500,3.000,1.000,5.000,5.000,0
"05/07/08","14:03:11",784.000,"cc",26948.795,6,0.100,467.000,0.200,104.000,0.300,33.000,0.500,56.000,1.000,123.000,5.000,1.000
"05/07/08","14:03:17",540.000,"cc",26985.617,6,0.100,410.000,0.200,111.000,0.300,14.000,0.500,2.000,1.000,3.000,5.000,0
"05/07/08","14:03:23",528.000,"cc",26963.647,6,0.100,363.000,0.200,95.000,0.300,15.000,0.500,13.000,1.000,41.000,5.000,1.000
"05/07/08","14:03:29",552.000,"cc",27032.574,6,0.100,409.000,0.200,91.000,0.300,11.000,0.500,15.000,1.000,26.000,5.000,0
"05/07/08","14:03:35",434.000,"cc",27204.299,6,0.100,341.000,0.200,87.000,0.300,3.000,0.500,3.000,1.000,0,5.000,0
"05/07/08","14:03:41",577.000,"cc",27415.178,6,0.100,402.000,0.200,95.000,0.300,19.000,0.500,22.000,1.000,39.000,5.000,0
"05/07/08","14:03:47",506.000,"cc",27653.566,6,0.100,372.000,0.200,90.000,0.300,11.000,0.500,12.000,1.000,20.000,5.000,1.000
"05/07/08","14:03:53",427.000,"cc",28166.715,6,0.100,346.000,0.200,73.000,0.300,7.000,0.500,1.000,1.000,0,5.000,0
"05/07/08","14:03:59",444.000,"cc",28554.420,6,0.100,362.000,0.200,78.000,0.300,3.000,0.500,1.000,1.000,0,5.000,0
"05/07/08","14:04:05",428.000,"cc",28653.309,6,0.100,334.000,0.200,87.000,0.300,5.000,0.500,1.000,1.000,1.000,5.000,0
"05/07/08","14:04:11",449.000,"cc",28777.924,6,0.100,349.000,0.200,93.000,0.300,4.000,0.500,3.000,1.000,0,5.000,0
"05/07/08","14:04:17",2960.000,"cc",28123.533,6,0.100,2699.000,0.200,166.000,0.300,54.000,0.500,32.000,1.000,7.000,5.000,2.000
"05/07/08","14:04:23",497.000,"cc",26966.547,6,0.100,375.000,0.200,98.000,0.300,16.000,0.500,6.000,1.000,2.000,5.000,0
"05/07/08","14:04:29",490.000,"cc",27024.604,6,0.100,392.000,0.200,87.000,0.300,8.000,0.500,2.000,1.000,1.000,5.000,0
"05/07/08","14:04:35",425.000,"cc",27172.229,6,0.100,337.000,0.200,81.000,0.300,7.000,0.500,0,1.000,0,5.000,0
"05/07/08","14:04:41",453.000,"cc",27471.477,6,0.100,347.000,0.200,100.000,0.300,5.000,0.500,1.000,1.000,0,5.000,0
"05/07/08","14:04:47",439.000,"cc",27915.764,6,0.100,335.000,0.200,92.000,0.300,11.000,0.500,1.000,1.000,0,5.000,0
"05/07/08","14:04:53",465.000,"cc",28530.186,6,0.100,369.000,0.200,86.000,0.300,9.000,0.500,1.000,1.000,0,5.000,0
"05/07/08","14:04:59",434.000,"cc",28684.916,6,0.100,342.000,0.200,82.000,0.300,9.000,0.500,1.000,1.000,0,5.000,0
"05/07/08","14:05:05",434.000,"cc",28693.523,6,0.100,343.000,0.200,87.000,0.300,4.000,0.500,0,1.000,0,5.000,0
"05/07/08","14:05:11",414.000,"cc",28640.182,6,0.100,327.000,0.200,81.000,0.300,4.000,0.500,1.000,1.000,1.000,5.000,0
"05/07/08","14:05:17",429.000,"cc",28602.572,6,0.100,348.000,0.200,71.000,0.300,8.000,0.500,2.000,1.000,0,5.000,0
"05/07/08","14:05:23",440.000,"cc",28716.475,6,0.100,337.000,0.200,94.000,0.300,9.000,0.500,0,1.000,0,5.000,0
"05/07/08","14:05:29",446.000,"cc",28622.137,6,0.100,355.000,0.200,84.000,0.300,5.000,0.500,2.000,1.000,0,5.000,0
"05/07/08","14:05:35",461.000,"cc",28598.953,6,0.100,349.000,0.200,103.000,0.300,6.000,0.500,3.000,1.000,0,5.000,0
"05/07/08","14:05:41",416.000,"cc",28642.106,6,0.100,323.000,0.200,83.000,0.300,9.000,0.500,0,1.000,1.000,5.000,0
"05/07/08","14:05:47",428.000,"cc",28684.203,6,0.100,337.000,0.200,81.000,0.300,5.000,0.500,3.000,1.000,2.000,5.000,0
"05/07/08","14:05:53",440.000,"cc",28667.789,6,0.100,356.000,0.200,75.000,0.300,8.000,0.500,1.000,1.000,0,5.000,0
"05/07/08","14:05:59",425.000,"cc",28672.840,6,0.100,338.000,0.200,80.000,0.300,5.000,0.500,2.000,1.000,0,5.000,0
"05/07/08","14:06:05",441.000,"cc",28632.231,6,0.100,365.000,0.200,66.000,0.300,9.000,0.500,1.000,1.000,0,5.000,0
"05/07/08","14:06:11",459.000,"cc",28635.023,6,0.100,368.000,0.200,81.000,0.300,8.000,0.500,2.000,1.000,0,5.000,0
"05/07/08","14:06:17",483.000,"cc",28727.055,6,0.100,378.000,0.200,92.000,0.300,9.000,0.500,3.000,1.000,1.000,5.000,0
"05/07/08","14:06:23",460.000,"cc",28672.588,6,0.100,363.000,0.200,81.000,0.300,13.000,0.500,3.000,1.000,0,5.000,0
"05/07/08","14:06:29",425.000,"cc",28692.705,6,0.100,332.000,0.200,89.000,0.300,3.000,0.500,1.000,1.000,0,5.000,0
"05/07/08","14:06:35",427.000,"cc",28648.701,6,0.100,346.000,0.200,71.000,0.300,8.000,0.500,2.000,1.000,0,5.000,0
"05/07/08","14:06:41",446.000,"cc",28669.449,6,0.100,335.000,0.200,97.000,0.300,11.000,0.500,2.000,1.000,1.000,5.000,0
"05/07/08","14:06:47",454.000,"cc",28636.121,6,0.100,367.000,0.200,74.000,0.300,7.000,0.500,4.000,1.000,2.000,5.000,0
"05/07/08","14:06:53",425.000,"cc",28607.930,6,0.100,342.000,0.200,75.000,0.300,7.000,0.500,1.000,1.000,0,5.000,0
"05/07/08","14:06:59",435.000,"cc",28640.563,6,0.100,354.000,0.200,74.000,0.300,7.000,0.500,0,1.000,0,5.000,0
"05/07/08","14:07:05",414.000,"cc",28586.010,6,0.100,324.000,0.200,83.000,0.300,7.000,0.500,0,1.000,0,5.000,0
"05/07/08","14:07:11",406.000,"cc",28583.229,6,0.100,318.000,0.200,76.000,0.300,10.000,0.500,2.000,1.000,0,5.000,0
"05/07/08","14:07:17",424.000,"cc",28700.107,6,0.100,350.000,0.200,70.000,0.300,2.000,0.500,2.000,1.000,0,5.000,0
"05/07/08","14:07:23",421.000,"cc",28644.869,6,0.100,331.000,0.200,85.000,0.300,2.000,0.500,3.000,1.000,0,5.000,0
"05/07/08","14:07:29",437.000,"cc",28658.717,6,0.100,344.000,0.200,85.000,0.300,7.000,0.500,1.000,1.000,0,5.000,0
"05/07/08","14:07:35",415.000,"cc",28706.787,6,0.100,325.000,0.200,81.000,0.300,9.000,0.500,0,1.000,0,5.000,0
"05/07/08","14:07:41",491.000,"cc",28732.461,6,0.100,393.000,0.200,86.000,0.300,9.000,0.500,3.000,1.000,0,5.000,0
"05/07/08","14:07:47",416.000,"cc",28649.313,6,0.100,322.000,0.200,86.000,0.300,7.000,0.500,1.000,1.000,0,5.000,0
"05/07/08","14:07:53",431.000,"cc",28609.414,6,0.100,339.000,0.200,83.000,0.300,9.000,0.500,0,1.000,0,5.000,0
"05/07/08","14:07:59",449.000,"cc",28606.992,6,0.100,368.000,0.200,73.000,0.300,7.000,0.500,1.000,1.000,0,5.000,0
"05/07/08","14:08:05",463.000,"cc",28670.225,6,0.100,366.000,0.200,92.000,0.300,3.000,0.500,2.000,1.000,0,5.000,0
"05/07/08","14:08:11",419.000,"cc",28734.414,6,0.100,334.000,0.200,79.000,0.300,5.000,0.500,1.000,1.000,0,5.000,0
"05/07/08","14:08:17",425.000,"cc",28703.617,6,0.100,344.000,0.200,71.000,0.300,8.000,0.500,1.000,1.000,1.000,5.000,0
"05/07/08","14:08:23",389.000,"cc",28741.637,6,0.100,313.000,0.200,65.000,0.300,7.000,0.500,0,1.000,4.000,5.000,0
"05/07/08","14:08:29",473.000,"cc",28561.875,6,0.100,372.000,0.200,96.000,0.300,2.000,0.500,2.000,1.000,1.000,5.000,0
"05/07/08","14:08:35",416.000,"cc",28479.791,6,0.100,326.000,0.200,83.000,0.300,6.000,0.500,1.000,1.000,0,5.000,0
"05/07/08","14:08:41",417.000,"cc",28422.662,6,0.100,328.000,0.200,83.000,0.300,5.000,0.500,0,1.000,1.000,5.000,0
"05/07/08","14:08:47",399.000,"cc",28377.940,6,0.100,299.000,0.200,90.000,0.300,7.000,0.500,3.000,1.000,0,5.000,0
"05/07/08","14:08:53",414.000,"cc",28305.297,6,0.100,328.000,0.200,76.000,0.300,8.000,0.500,2.000,1.000,0,5.000,0
"05/07/08","14:08:59",467.000,"cc",28346.859,6,0.100,363.000,0.200,94.000,0.300,9.000,0.500,0,1.000,1.000,5.000,0
"05/07/08","14:09:05",423.000,"cc",28336.293,6,0.100,336.000,0.200,73.000,0.300,12.000,0.500,2.000,1.000,0,5.000,0
"05/07/08","14:09:11",444.000,"cc",28263.598,6,0.100,352.000,0.200,84.000,0.300,7.000,0.500,1.000,1.000,0,5.000,0
"05/07/08","14:09:17",427.000,"cc",28300.297,6,0.100,328.000,0.200,93.000,0.300,5.000,0.500,1.000,1.000,0,5.000,0
"05/07/08","14:09:23",435.000,"cc",28374.131,6,0.100,326.000,0.200,99.000,0.300,9.000,0.500,1.000,1.000,0,5.000,0
"05/07/08","14:09:29",442.000,"cc",28313.481,6,0.100,345.000,0.200,88.000,0.300,7.000,0.500,2.000,1.000,0,5.000,0
"05/07/08","14:09:35",433.000,"cc",28311.471,6,0.100,341.000,0.200,84.000,0.300,5.000,0.500,2.000,1.000,1.000,5.000,0
"05/07/08","14:09:41",426.000,"cc",28266.287,6,0.100,329.000,0.200,88.000,0.300,8.000,0.500,1.000,1.000,0,5.000,0
"05/07/08","14:09:47",464.000,"cc",28325.057,6,0.100,370.000,0.200,87.000,0.300,5.000,0.500,2.000,1.000,0,5.000,0
"05/07/08","14:09:53",445.000,"cc",28389.000,6,0.100,364.000,0.200,78.000,0.300,2.000,0.500,1.000,1.000,0,5.000,0
"05/07/08","14:09:59",431.000,"cc",28318.734,6,0.100,318.000,0.200,106.000,0.300,5.000,0.500,2.000,1.000,0,5.000,0
"05/07/08","14:10:05",469.000,"cc",28269.568,6,0.100,366.000,0.200,93.000,0.300,7.000,0.500,1.000,1.000,2.000,5.000,0
"05/07/08","14:10:11",406.000,"cc",28316.258,6,0.100,321.000,0.200,77.000,0.300,6.000,0.500,2.000,1.000,0,5.000,0
"05/07/08","14:10:17",433.000,"cc",28307.967,6,0.100,326.000,0.200,99.000,0.300,5.000,0.500,3.000,1.000,0,5.000,0
"05/07/08","14:10:23",473.000,"cc",28328.221,6,0.100,363.000,0.200,106.000,0.300,2.000,0.500,2.000,1.000,0,5.000,0
"05/07/08","14:10:29",452.000,"cc",28253.272,6,0.100,360.000,0.200,85.000,0.300,6.000,0.500,0,1.000,1.000,5.000,0
"05/07/08","14:10:35",398.000,"cc",28352.732,6,0.100,314.000,0.200,74.000,0.300,10.000,0.500,0,1.000,0,5.000,0
"05/07/08","14:10:41",433.000,"cc",28423.125,6,0.100,354.000,0.200,75.000,0.300,2.000,0.500,2.000,1.000,0,5.000,0
"05/07/08","14:10:47",465.000,"cc",28271.635,6,0.100,370.000,0.200,89.000,0.300,5.000,0.500,1.000,1.000,0,5.000,0
"05/07/08","14:10:53",463.000,"cc",28306.014,6,0.100,381.000,0.200,77.000,0.300,4.000,0.500,1.000,1.000,0,5.000,0
"05/07/08","14:10:59",413.000,"cc",28304.389,6,0.100,323.000,0.200,80.000,0.300,10.000,0.500,0,1.000,0,5.000,0
"05/07/08","14:11:05",451.000,"cc",28247.090,6,0.100,371.000,0.200,76.000,0.300,2.000,0.500,2.000,1.000,0,5.000,0
"05/07/08","14:11:11",482.000,"cc",28321.404,6,0.100,390.000,0.200,81.000,0.300,7.000,0.500,4.000,1.000,0,5.000,0
"05/07/08","14:11:17",470.000,"cc",28396.326,6,0.100,361.000,0.200,93.000,0.300,12.000,0.500,2.000,1.000,2.000,5.000,0
"05/07/08","14:11:23",472.000,"cc",28312.992,6,0.100,373.000,0.200,90.000,0.300,8.000,0.500,1.000,1.000,0,5.000,0
"05/07/08","14:11:29",459.000,"cc",28326.209,6,0.100,372.000,0.200,79.000,0.300,8.000,0.500,0,1.000,0,5.000,0
"05/07/08","14:11:35",465.000,"cc",28328.672,6,0.100,364.000,0.200,89.000,0.300,10.000,0.500,2.000,1.000,0,5.000,0
"05/07/08","14:11:41",482.000,"cc",28273.295,6,0.100,367.000,0.200,104.000,0.300,9.000,0.500,1.000,1.000,1.000,5.000,0
"05/07/08","14:11:47",493.000,"cc",28347.674,6,0.100,394.000,0.200,88.000,0.300,9.000,0.500,2.000,1.000,0,5.000,0
"05/07/08","14:11:53",430.000,"cc",28318.828,6,0.100,349.000,0.200,74.000,0.300,6.000,0.500,0,1.000,1.000,5.000,0
"05/07/08","14:11:59",470.000,"cc",28289.486,6,0.100,367.000,0.200,89.000,0.300,8.000,0.500,4.000,1.000,2.000,5.000,0
"05/07/08","14:12:05",473.000,"cc",28334.920,6,0.100,384.000,0.200,75.000,0.300,12.000,0.500,1.000,1.000,1.000,5.000,0
"05/07/08","14:12:11",483.000,"cc",28354.393,6,0.100,390.000,0.200,87.000,0.300,4.000,0.500,2.000,1.000,0,5.000,0
"05/07/08","14:12:17",424.000,"cc",28349.047,6,0.100,339.000,0.200,78.000,0.300,5.000,0.500,2.000,1.000,0,5.000,0
"05/07/08","14:12:23",476.000,"cc",28342.250,6,0.100,380.000,0.200,86.000,0.300,6.000,0.500,3.000,1.000,1.000,5.000,0
"05/07/08","14:12:29",444.000,"cc",28243.555,6,0.100,370.000,0.200,63.000,0.300,9.000,0.500,1.000,1.000,1.000,5.000,0
"05/07/08","14:12:35",466.000,"cc",28285.912,6,0.100,368.000,0.200,84.000,0.300,13.000,0.500,1.000,1.000,0,5.000,0
"05/07/08","14:12:41",471.000,"cc",28343.004,6,0.100,369.000,0.200,87.000,0.300,13.000,0.500,2.000,1.000,0,5.000,0
"05/07/08","14:12:47",468.000,"cc",28267.176,6,0.100,361.000,0.200,94.000,0.300,12.000,0.500,1.000,1.000,0,5.000,0
"05/07/08","14:12:53",444.000,"cc",28251.049,6,0.100,359.000,0.200,79.000,0.300,5.000,0.500,1.000,1.000,0,5.000,0
"05/07/08","14:12:59",439.000,"cc",28325.869,6,0.100,344.000,0.200,89.000,0.300,4.000,0.500,2.000,1.000,0,5.000,0
"05/07/08","14:13:05",464.000,"cc",28378.965,6,0.100,359.000,0.200,96.000,0.300,7.000,0.500,1.000,1.000,1.000,5.000,0
"05/07/08","14:13:11",496.000,"cc",28264.408,6,0.100,398.000,0.200,88.000,0.300,7.000,0.500,3.000,1.000,0,5.000,0
"05/07/08","14:13:17",3547.000,"cc",27094.607,6,0.100,2753.000,0.200,468.000,0.300,169.000,0.500,113.000,1.000,32.000,5.000,12.000
"05/07/08","14:13:23",552.000,"cc",26923.270,6,0.100,428.000,0.200,96.000,0.300,18.000,0.500,7.000,1.000,3.000,5.000,0
"05/07/08","14:13:29",532.000,"cc",26959.311,6,0.100,414.000,0.200,100.000,0.300,16.000,0.500,1.000,1.000,1.000,5.000,0
"05/07/08","14:13:35",533.000,"cc",26997.342,6,0.100,405.000,0.200,113.000,0.300,10.000,0.500,5.000,1.000,0,5.000,0
"05/07/08","14:13:41",522.000,"cc",26987.943,6,0.100,415.000,0.200,100.000,0.300,5.000,0.500,2.000,1.000,0,5.000,0
"05/07/08","14:13:47",520.000,"cc",27147.242,6,0.100,405.000,0.200,110.000,0.300,2.000,0.500,2.000,1.000,1.000,5.000,0
"05/07/08","14:13:53",480.000,"cc",27355.070,6,0.100,373.000,0.200,98.000,0.300,8.000,0.500,1.000,1.000,0,5.000,0
"05/07/08","14:13:59",526.000,"cc",27690.471,6,0.100,415.000,0.200,100.000,0.300,8.000,0.500,2.000,1.000,1.000,5.000,0
"05/07/08","14:14:05",484.000,"cc",28066.801,6,0.100,383.000,0.200,90.000,0.300,10.000,0.500,1.000,1.000,0,5.000,0
"05/07/08","14:14:11",525.000,"cc",28498.729,6,0.100,414.000,0.200,98.000,0.300,11.000,0.500,2.000,1.000,0,5.000,0
"05/07/08","14:14:17",490.000,"cc",28670.551,6,0.100,392.000,0.200,90.000,0.300,7.000,0.500,0,1.000,1.000,5.000,0
"05/07/08","14:14:23",488.000,"cc",28655.863,6,0.100,387.000,0.200,92.000,0.300,6.000,0.500,2.000,1.000,1.000,5.000,0
"05/07/08","14:14:29",476.000,"cc",28515.498,6,0.100,367.000,0.200,94.000,0.300,12.000,0.500,2.000,1.000,1.000,5.000,0
"05/07/08","14:14:35",476.000,"cc",28491.766,6,0.100,369.000,0.200,100.000,0.300,6.000,0.500,1.000,1.000,0,5.000,0
"05/07/08","14:14:41",488.000,"cc",28595.375,6,0.100,399.000,0.200,81.000,0.300,6.000,0.500,1.000,1.000,1.000,5.000,0
"05/07/08","14:14:47",532.000,"cc",28626.715,6,0.100,437.000,0.200,86.000,0.300,7.000,0.500,1.000,1.000,1.000,5.000,0
"05/07/08","14:14:53",487.000,"cc",28594.824,6,0.100,390.000,0.200,89.000,0.300,8.000,0.500,0,1.000,0,5.000,0
"05/07/08","14:14:59",475.000,"cc",28619.342,6,0.100,380.000,0.200,85.000,0.300,9.000,0.500,1.000,1.000,0,5.000,0
"05/07/08","14:15:05",481.000,"cc",28697.582,6,0.100,378.000,0.200,96.000,0.300,6.000,0.500,1.000,1.000,0,5.000,0
"05/07/08","14:15:11",492.000,"cc",28633.604,6,0.100,386.000,0.200,101.000,0.300,4.000,0.500,1.000,1.000,0,5.000,0
"05/07/08","14:15:17",466.000,"cc",28658.414,6,0.100,390.000,0.200,70.000,0.300,6.000,0.500,0,1.000,0,5.000,0
"05/07/08","14:15:23",536.000,"cc",28620.885,6,0.100,429.000,0.200,95.000,0.300,10.000,0.500,2.000,1.000,0,5.000,0
"05/07/08","14:15:29",7458.000,"cc",28207.006,6,0.100,5502.000,0.200,1096.000,0.300,402.000,0.500,295.000,1.000,114.000,5.000,49.000
"05/07/08","14:15:35",1321.000,"cc",26626.154,6,0.100,894.000,0.200,279.000,0.300,85.000,0.500,52.000,1.000,11.000,5.000,0
"05/07/08","14:15:41",591.000,"cc",27123.348,6,0.100,451.000,0.200,117.000,0.300,18.000,0.500,4.000,1.000,1.000,5.000,0
"05/07/08","14:15:47",530.000,"cc",27279.295,6,0.100,394.000,0.200,117.000,0.300,15.000,0.500,4.000,1.000,0,5.000,0
"05/07/08","14:15:53",493.000,"cc",27279.928,6,0.100,372.000,0.200,110.000,0.300,10.000,0.500,1.000,1.000,0,5.000,0
"05/07/08","14:15:59",547.000,"cc",27040.154,6,0.100,430.000,0.200,111.000,0.300,5.000,0.500,1.000,1.000,0,5.000,0
"05/07/08","14:16:05",487.000,"cc",27040.815,6,0.100,386.000,0.200,91.000,0.300,8.000,0.500,2.000,1.000,0,5.000,0
"05/07/08","14:16:11",459.000,"cc",27050.002,6,0.100,355.000,0.200,95.000,0.300,7.000,0.500,2.000,1.000,0,5.000,0
"05/07/08","14:16:17",502.000,"cc",26976.654,6,0.100,399.000,0.200,94.000,0.300,5.000,0.500,3.000,1.000,1.000,5.000,0
"05/07/08","14:16:23",498.000,"cc",27020.926,6,0.100,398.000,0.200,87.000,0.300,11.000,0.500,1.000,1.000,1.000,5.000,0
"05/07/08","14:16:29",526.000,"cc",27141.990,6,0.100,409.000,0.200,103.000,0.300,11.000,0.500,3.000,1.000,0,5.000,0
"05/07/08","14:16:35",466.000,"cc",27395.744,6,0.100,362.000,0.200,93.000,0.300,7.000,0.500,4.000,1.000,0,5.000,0
"05/07/08","14:16:41",463.000,"cc",27493.873,6,0.100,376.000,0.200,81.000,0.300,5.000,0.500,1.000,1.000,0,5.000,0
"05/07/08","14:16:47",539.000,"cc",27825.799,6,0.100,440.000,0.200,88.000,0.300,6.000,0.500,2.000,1.000,3.000,5.000,0
"05/07/08","14:16:53",499.000,"cc",28074.359,6,0.100,395.000,0.200,98.000,0.300,5.000,0.500,1.000,1.000,0,5.000,0
"05/07/08","14:16:59",496.000,"cc",28527.865,6,0.100,399.000,0.200,84.000,0.300,11.000,0.500,2.000,1.000,0,5.000,0
"05/07/08","14:17:05",491.000,"cc",28742.838,6,0.100,398.000,0.200,86.000,0.300,6.000,0.500,1.000,1.000,0,5.000,0
"05/07/08","14:17:11",532.000,"cc",28732.322,6,0.100,426.000,0.200,98.000,0.300,6.000,0.500,2.000,1.000,0,5.000,0
"05/07/08","14:17:17",508.000,"cc",28757.920,6,0.100,405.000,0.200,94.000,0.300,8.000,0.500,0,1.000,1.000,5.000,0
"05/07/08","14:17:23",518.000,"cc",28754.002,6,0.100,412.000,0.200,95.000,0.300,10.000,0.500,1.000,1.000,0,5.000,0
"05/07/08","14:17:29",518.000,"cc",28745.856,6,0.100,423.000,0.200,87.000,0.300,6.000,0.500,0,1.000,2.000,5.000,0
"05/07/08","14:17:35",521.000,"cc",28775.027,6,0.100,415.000,0.200,98.000,0.300,5.000,0.500,3.000,1.000,0,5.000,0
"05/07/08","14:17:41",492.000,"cc",28701.053,6,0.100,384.000,0.200,93.000,0.300,14.000,0.500,0,1.000,1.000,5.000,0
"05/07/08","14:17:47",498.000,"cc",28685.160,6,0.100,397.000,0.200,95.000,0.300,5.000,0.500,1.000,1.000,0,5.000,0
"05/07/08","14:17:53",478.000,"cc",28701.963,6,0.100,389.000,0.200,81.000,0.300,6.000,0.500,2.000,1.000,0,5.000,0
"05/07/08","14:17:59",522.000,"cc",28668.154,6,0.100,418.000,0.200,93.000,0.300,10.000,0.500,1.000,1.000,0,5.000,0
"05/07/08","14:18:05",519.000,"cc",28707.549,6,0.100,418.000,0.200,90.000,0.300,11.000,0.500,0,1.000,0,5.000,0
"05/07/08","14:18:11",502.000,"cc",28704.584,6,0.100,402.000,0.200,95.000,0.300,5.000,0.500,0,1.000,0,5.000,0
"05/07/08","14:18:17",476.000,"cc",28674.258,6,0.100,373.000,0.200,94.000,0.300,8.000,0.500,1.000,1.000,0,5.000,0
"05/07/08","14:18:23",496.000,"cc",28683.504,6,0.100,386.000,0.200,99.000,0.300,8.000,0.500,2.000,1.000,1.000,5.000,0
"05/07/08","14:18:29",509.000,"cc",28699.359,6,0.100,409.000,0.200,89.000,0.300,8.000,0.500,3.000,1.000,0,5.000,0
"05/07/08","14:18:35",474.000,"cc",28683.838,6,0.100,381.000,0.200,86.000,0.300,7.000,0.500,0,1.000,0,5.000,0
"05/07/08","14:18:41",524.000,"cc",28648.711,6,0.100,423.000,0.200,90.000,0.300,8.000,0.500,3.000,1.000,0,5.000,0
"05/07/08","14:18:47",486.000,"cc",28600.160,6,0.100,367.000,0.200,107.000,0.300,11.000,0.500,1.000,1.000,0,5.000,0
"05/07/08","14:18:53",531.000,"cc",28592.078,6,0.100,430.000,0.200,96.000,0.300,4.000,0.500,1.000,1.000,0,5.000,0
"05/07/08","14:18:59",518.000,"cc",28590.606,6,0.100,404.000,0.200,100.000,0.300,12.000,0.500,2.000,1.000,0,5.000,0
"05/07/08","14:19:05",489.000,"cc",28617.201,6,0.100,382.000,0.200,96.000,0.300,10.000,0.500,1.000,1.000,0,5.000,0
"05/07/08","14:19:11",515.000,"cc",28680.467,6,0.100,416.000,0.200,94.000,0.300,4.000,0.500,1.000,1.000,0,5.000,0
"05/07/08","14:19:17",487.000,"cc",28735.484,6,0.100,390.000,0.200,83.000,0.300,12.000,0.500,2.000,1.000,0,5.000,0
"05/07/08","14:19:23",540.000,"cc",28636.645,6,0.100,437.000,0.200,91.000,0.300,9.000,0.500,2.000,1.000,1.000,5.000,0